Location: Krasnoyarskiy Pitomnik
(51.1333°N, 71.6167°E)
Time: 23:18:07
(UTC+00:00)

Vanguard 1 - Pass Details

Date: 20 April 2024
Orbit: 651 x 3826 km, 34.2° (Epoch: 18 May)

Event Time Altitude Azimuth Distance (km) Brightness Sun altitude
Exits shadow 22:38:45 - 210° (SSW) 7,015 13.8 -12.7°
Reaches altitude 10° 22:39:42 10° 208° (SSW) 6,856 13.8 -12.6°
Maximum altitude 22:56:54 31° 158° (SSE) 4,515 13.3 -10.4°
Drops below altitude 10° 23:09:10 10° 104° (ESE) 4,908 14.3 -8.8°
Sets 23:12:52 0° 94° (E) 5,500 14.9 -8.3°
